Content
SEND FEEDBACK

Daily
Averages
Monthly
Summary
United States of America

RAPID CITY, SOUTH DAKOTA


Home > North America > United States > South Dakota
Elevation: 963 meters     Latitude: 44 03N     Longitude: 103 04W

WEATHER
 
SELECT A DAY
Number of Records: 200,374;   Date Range: 1/1/95 - 8/12/14
 
SHARE

PRINT THIS DATA

[ ← Previous Day ]
WEATHER ALMANAC - 6 MARCH, 2013
[ Next Day → ]
[ °F ]   °C
Weather ElementAverageHighLow
Temperature-1.7 °C8.9 °C (2:52 pm)-12.8 °C (1:52 am)
Dewpoint-9.2 °C-5.6 °C (9:52 pm)-14.4 °C (1:52 am)
Humidity61.6 %88 % (1:52 am)29 % (2:52 pm)
Barometer1017.9 hPa1025.7 hPa (1:52 am)1011.2 hPa (11:52 pm)
Wind Speed14.6 km/h22.2 km/h (2:52 pm)
Wind Gust31.5 km/h (1:52 pm)
Weather ElementAverage
Visibility16.1 km
Wind DirectionSE (133.9 °)

Weather ElementTotal
Precipitation---
Heating Degree Days20.3 (Base 18.3)
Averaged from 23 records on 6 March, 2013
WEATHER CONDITIONS BREAKOUT
WIND DIRECTION BREAKOUT
WEATHER BY HOUR - 6 MARCH, 2013
[ °F ]   °C
Local TimeTemperatureDewpointHumidityBarometerVisibilityWind DirectionWind SpeedGust SpeedPrecipitationEventsConditions
1:52 AM-12.8 °C-14.4 °C88 %1025.7 hPa16.1 kmSE (140°)9.3 km/hClear
2:52 AM-11.7 °C-13.9 °C84 %1024.4 hPa16.1 kmSSE (160°)18.5 km/hClear
3:52 AM-11.7 °C-13.3 °C88 %1023.7 hPa16.1 kmSE (140°)14.8 km/hClear
4:52 AM-11.7 °C-13.3 °C88 %1023.4 hPa16.1 kmSE (130°)14.8 km/hClear
5:52 AM-10.6 °C-12.8 °C84 %1023.7 hPa16.1 kmESE (110°)14.8 km/hClear
6:52 AM-10 °C-12.2 °C84 %1023.4 hPa16.1 kmESE (110°)11.1 km/hClear
7:52 AM-8.3 °C-10.6 °C84 %1023.4 hPa16.1 kmESE (120°)7.4 km/hClear
8:52 AM-5.6 °C-8.9 °C78 %1022.7 hPa16.1 kmESE (110°)9.3 km/hClear
9:52 AM-2.8 °C-8.9 °C63 %1021.7 hPa16.1 kmSE (140°)14.8 km/hClear
10:52 AM1.1 °C-8.3 °C50 %1020 hPa16.1 kmSSE (160°)9.3 km/hClear
11:52 AM3.3 °C-7.8 °C45 %1019 hPa16.1 kmSE (130°)16.7 km/hClear
12:52 PM6.1 °C-7.8 °C37 %1017.3 hPa16.1 kmSE (140°)20.4 km/h29.6 km/hClear
1:52 PM7.2 °C-7.8 °C34 %1015.9 hPa16.1 kmESE (120°)16.7 km/h31.5 km/hClear
2:52 PM8.9 °C-8.3 °C29 %1014.2 hPa16.1 kmSSE (160°)22.2 km/hClear
3:52 PM8.3 °C-7.8 °C32 %1013.9 hPa16.1 kmSSE (150°)22.2 km/hClear
4:52 PM7.2 °C-7.8 °C34 %1012.9 hPa16.1 kmSE (140°)11.1 km/hClear
5:52 PM4.4 °C-8.3 °C40 %1012.9 hPa16.1 kmESE (110°)9.3 km/hClear
6:52 PM2.8 °C-7.2 °C48 %1013.2 hPa16.1 kmSSE (150°)13 km/hClear
7:52 PM1.1 °C-7.8 °C52 %1012.9 hPa16.1 kmSE (140°)7.4 km/hClear
8:52 PM-0.6 °C-6.7 °C64 %1012.9 hPa16.1 kmESE (120°)14.8 km/hClear
9:52 PM0.6 °C-5.6 °C64 %1012.2 hPa16.1 kmSE (130°)22.2 km/hClear
10:52 PM-0.6 °C-5.6 °C69 %1011.9 hPa16.1 kmSE (130°)22.2 km/hClear
11:52 PM-2.8 °C-6.1 °C78 %1011.2 hPa16.1 kmSE (140°)13 km/hClear
Hourly data recorded from KRAP, located 0 kilometers away from Rapid City, South Dakota







STORIES FROM OUR PARTNERS